Date String (YYYY-MM-DD hh:mm:ss) UTC,Instrument flags,Ambient pressure (hPa),Sample flow (lpm),Bypass flow (lpm),Sample temperature (°C),Ambient temperature (°C),ASC tube jacket temperature (°C),LED temperature (°C),Box temperature (°C),Sample RH (%),Span deviation,Mass concentration (μg/m³),Mass concentration (μg/m³),Mass concentration (μg/m³)
DateTimeUTC,F1_M11,P_M11,Q1_M11,Q2_M11,T1_M11,T2_M11,T3_M11,T4_M11,T5_M11,U1_M11,ZSPAN_M11,X0_M11,X2_M11,X1_M11
2022-06-27 11:00:00,,0834.9,5.00,0.00,29.3,28.2,00.0,38.2,31.2,23.6,0000.0,0008.88,0004.10,0003.67
2022-06-27 11:01:00,,0834.9,5.00,0.00,29.3,28.3,00.0,38.2,31.2,23.7,0000.0,0009.26,0004.14,0003.69
2022-06-27 11:02:00,,0834.8,5.00,0.00,29.3,28.3,00.0,38.2,31.2,23.7,0000.0,0008.76,0004.17,0003.71
2022-06-27 11:03:00,,0834.8,5.00,0.00,29.3,28.3,00.0,38.2,31.2,23.6,0000.0,0008.60,0004.17,0003.74
2022-06-27 11:04:00,,0834.9,4.98,0.00,29.3,28.3,00.0,38.2,31.2,23.4,0000.0,0008.57,0004.15,0003.73
2022-06-27 11:05:00,,0834.8,5.01,0.00,29.3,28.3,00.0,38.2,31.2,23.3,0000.0,0008.82,0004.16,0003.72
2022-06-27 11:06:00,,0834.9,5.01,0.00,29.3,28.3,00.0,38.2,31.2,23.4,0000.0,0009.24,0004.18,0003.72
2022-06-27 11:07:00,,0834.9,5.00,0.00,29.3,28.3,00.0,38.2,31.2,23.3,0000.0,0009.15,0004.15,0003.72
2022-06-27 11:08:00,,0834.9,5.01,0.00,29.4,28.3,00.0,38.2,31.2,23.3,0000.0,0009.09,0004.14,0003.72
2022-06-27 11:09:00,,0834.9,4.99,0.00,29.4,28.3,00.0,38.2,31.2,23.3,0000.0,0008.93,0004.10,0003.73
2022-06-27 11:10:00,,0834.9,5.00,0.00,29.4,28.3,00.0,38.2,31.2,23.3,0000.0,0008.85,0004.09,0003.74
2022-06-27 11:11:00,,0835.0,5.01,0.00,29.4,28.3,00.0,38.2,31.2,23.2,0000.0,0008.84,0004.12,0003.75
2022-06-27 11:12:00,,0835.0,4.99,0.00,29.4,28.3,00.0,38.2,31.2,23.1,0000.0,0008.36,0004.10,0003.75
2022-06-27 11:13:00,,0835.0,5.01,0.00,29.4,28.3,00.0,38.2,31.2,23.2,0000.0,0008.00,0004.04,0003.73
2022-06-27 11:14:00,,0835.0,5.00,0.00,29.4,28.3,00.0,38.2,31.2,23.1,0000.0,0008.02,0004.04,0003.71
2022-06-27 11:15:00,,0835.0,4.99,0.00,29.4,28.3,00.0,38.2,31.2,23.2,0000.0,0008.07,0004.06,0003.70
2022-06-27 11:16:00,,0834.9,5.01,0.00,29.4,28.3,00.0,38.2,31.2,23.2,0000.0,0007.78,0004.06,0003.70
2022-06-27 11:17:00,,0834.9,5.01,0.00,29.4,28.3,00.0,38.2,31.2,23.3,0000.0,0006.92,0004.05,0003.71
2022-06-27 11:18:00,,0834.9,5.01,0.00,29.4,28.3,00.0,38.2,31.2,23.3,0000.0,0006.35,0004.06,0003.71
2022-06-27 11:19:00,,0834.9,5.00,0.00,29.4,28.3,00.0,38.2,31.2,23.3,0000.0,0006.36,0004.05,0003.71
2022-06-27 11:20:00,,0834.9,5.00,0.00,29.4,28.3,00.0,38.2,31.2,23.6,0000.0,0006.45,0004.08,0003.73
2022-06-27 11:21:00,,0835.0,5.01,0.00,29.4,28.3,00.0,38.2,31.2,24.4,0000.0,0006.43,0004.07,0003.73
2022-06-27 11:22:00,,0834.9,5.00,0.00,29.4,28.3,00.0,38.2,31.2,25.2,0000.0,0006.46,0004.07,0003.74
2022-06-27 11:23:00,,0834.9,5.00,0.00,29.4,28.3,00.0,38.2,31.2,26.1,0000.0,0006.65,0004.10,0003.77
2022-06-27 11:24:00,,0834.8,4.99,0.00,29.4,28.3,00.0,38.2,31.2,25.6,0000.0,0006.91,0004.16,0003.80
2022-06-27 11:25:00,,0834.8,4.99,0.00,29.4,28.3,00.0,38.2,31.2,25.6,0000.0,0007.04,0004.19,0003.82
2022-06-27 11:26:00,,0834.8,5.00,0.00,29.4,28.3,00.0,38.2,31.2,25.4,0000.0,0007.92,0004.19,0003.84
2022-06-27 11:27:00,,0834.8,5.01,0.00,29.4,28.3,00.0,38.2,31.2,25.3,0000.0,0008.14,0004.22,0003.86
2022-06-27 11:28:00,,0834.8,5.00,0.00,29.4,28.3,00.0,38.2,31.2,25.1,0000.0,0008.25,0004.26,0003.86
2022-06-27 11:29:00,,0834.8,5.00,0.00,29.4,28.3,00.0,38.2,31.2,25.0,0000.0,0008.24,0004.27,0003.87
2022-06-27 11:30:00,,0834.9,4.99,0.00,29.4,28.3,00.0,38.2,31.2,25.0,0000.0,0008.23,0004.29,0003.88
2022-06-27 11:31:00,,0834.9,5.00,0.00,29.4,28.3,00.0,38.2,31.2,25.2,0000.0,0008.33,0004.32,0003.89
2022-06-27 11:32:00,,0834.9,5.00,0.00,29.4,28.3,00.0,38.2,31.2,25.0,0000.0,0009.31,0004.32,0003.89
2022-06-27 11:33:00,,0834.9,5.01,0.00,29.4,28.3,00.0,38.2,31.2,24.9,0000.0,0009.46,0004.32,0003.89
2022-06-27 11:34:00,,0834.9,4.99,0.00,29.4,28.3,00.0,38.2,31.2,24.8,0000.0,0009.68,0004.32,0003.88
2022-06-27 11:35:00,,0835.0,4.99,0.00,29.4,28.3,00.0,38.2,31.3,25.3,0000.0,0009.97,0004.32,0003.88
2022-06-27 11:36:00,,0835.0,5.00,0.00,29.4,28.3,00.0,38.2,31.3,25.5,0000.0,0010.09,0004.33,0003.89
2022-06-27 11:37:00,,0834.9,5.00,0.00,29.4,28.3,00.0,38.2,31.2,25.1,0000.0,0009.74,0004.39,0003.91
2022-06-27 11:38:00,,0835.0,5.00,0.00,29.4,28.3,00.0,38.2,31.2,25.0,0000.0,0009.71,0004.40,0003.94
2022-06-27 11:39:00,,0834.9,4.99,0.00,29.4,28.3,00.0,38.2,31.2,24.9,0000.0,0009.68,0004.41,0003.96
2022-06-27 11:40:00,,0834.9,5.00,0.00,29.4,28.3,00.0,38.3,31.2,24.8,0000.0,0009.87,0004.47,0003.99
2022-06-27 11:41:00,,0835.0,5.00,0.00,29.4,28.3,00.0,38.3,31.2,24.7,0000.0,0010.04,0004.54,0004.02
2022-06-27 11:42:00,,0834.9,5.01,0.00,29.4,28.3,00.0,38.3,31.2,24.7,0000.0,0010.14,0004.57,0004.04
2022-06-27 11:43:00,,0834.9,5.00,0.00,29.4,28.3,00.0,38.3,31.2,24.7,0000.0,0009.32,0004.59,0004.06
2022-06-27 11:44:00,,0834.9,5.00,0.00,29.4,28.3,00.0,38.3,31.2,24.7,0000.0,0009.11,0004.62,0004.08
2022-06-27 11:45:00,,0834.9,5.01,0.00,29.4,28.3,00.0,38.2,31.2,24.7,0000.0,0009.16,0004.67,0004.12
2022-06-27 11:46:00,,0834.9,4.99,0.00,29.4,28.3,00.0,38.2,31.2,24.6,0000.0,0009.08,0004.71,0004.13
2022-06-27 11:47:00,,0834.9,5.01,0.00,29.4,28.3,00.0,38.2,31.2,24.6,0000.0,0009.06,0004.70,0004.14
2022-06-27 11:48:00,,0834.9,5.01,0.00,29.4,28.3,00.0,38.2,31.2,24.7,0000.0,0008.91,0004.67,0004.14
2022-06-27 11:49:00,,0834.9,5.00,0.00,29.4,28.3,00.0,38.2,31.2,24.4,0000.0,0008.59,0004.64,0004.12
2022-06-27 11:50:00,,0834.9,5.01,0.00,29.4,28.3,00.0,38.2,31.2,24.3,0000.0,0008.53,0004.61,0004.10
2022-06-27 11:51:00,,0834.9,5.01,0.00,29.4,28.3,00.0,38.2,31.2,24.2,0000.0,0008.40,0004.53,0004.08
2022-06-27 11:52:00,,0834.9,5.00,0.00,29.4,28.3,00.0,38.2,31.2,24.1,0000.0,0008.41,0004.50,0004.07
2022-06-27 11:53:00,,0834.9,5.00,0.00,29.4,28.3,00.0,38.2,31.2,24.1,0000.0,0008.66,0004.45,0004.06
2022-06-27 11:54:00,,0834.9,4.98,0.00,29.4,28.3,00.0,38.3,31.2,24.0,0000.0,0010.11,0004.43,0004.06
2022-06-27 11:55:00,,0834.8,5.00,0.00,29.4,28.3,00.0,38.3,31.2,24.1,0000.0,0010.21,0004.44,0004.06
2022-06-27 11:56:00,,0834.9,5.00,0.00,29.4,28.3,00.0,38.2,31.2,24.1,0000.0,0010.07,0004.40,0004.05
2022-06-27 11:57:00,,0834.9,4.99,0.00,29.4,28.3,00.0,38.3,31.2,24.1,0000.0,0009.61,0004.37,0004.05
2022-06-27 11:58:00,,0834.9,5.00,0.00,29.4,28.3,00.0,38.3,31.2,24.1,0000.0,0009.65,0004.39,0004.04
2022-06-27 11:59:00,,0834.8,5.00,0.00,29.4,28.3,00.0,38.3,31.2,24.1,0000.0,0009.60,0004.38,0004.05
